sat.trackr.live / text

‹ back to catalog

STRIX-5

NORAD 65971 · 2025-229A

PAYLOAD ACTIVE UNKNOWN

§ Identity

Operator
Country
JPN
Launch date
2025-10-14
Launch site
RLLB
Launch vehicle
Mass (kg)
RCS (m²)

External: N2YO · Heavens-Above · Gunter

§ Orbital elements

Epoch: 2026-09-20T22:48:55.951776Z

Period
95.68 min
Inclination
41.9270°
Eccentricity
0.0036875
Mean motion
15.05010673 rev/d
Perigee alt
525.9 km
Apogee alt
577.0 km
Semi-major
6,929.6 km
B*
1.6544e-4
RAAN
116.1325°
Arg perigee
319.4537°
Mean anomaly
40.3544°
Rev number
5,140

§ Raw data

STRIX-51 65971U 25229A   26263.95064759  .00002225  00000+0  16544-3 0  99952 65971  41.9270 116.1325 0036875 319.4537  40.3544 15.05010673 51401

JSON: /api/v1/satellites/65971 · /tle

For live sub-satellite position, see the globe view (requires WebGL).

§ Visibility from observer

Set your observer location to see the next 7 days of passes ≥ 10°. The values pass through the URL so the page stays shareable.

No JS? Fill the form by hand. The geolocation button needs JavaScript.